STARLINK-4064, 52665

Orbit data source: Space-Track

STARLINK-4064, 52665 is a payload satellite owned by SpaceX/Seattle (US) in LEO that was launched on Wed, 18 May 2022 UTC via an FALCON 9 launch vehicle from the Air Force Eastern Test Range (AFETR). Payload-class satellites include a variety of spacecraft equipped with specific instruments for various scientific and technological missions. These include communications satellites like Starlink; space stations such as the ISS; scientific satellites like the Hubble; Earth observation satellites from companies like Planet Labs, Umbra, and HawkEye 360; GPS; miniature CubeSats for education and research; and military/defense satellites.

Loading next visibility...
Identifier
52665, 2022-053K
Orbit
LEO
Country
Flag of USUS
Related business
Manufacturer
SpaceX/Seattle
Mission
Operational Commercial Communications
Bus & Motor
STARLINK, Unknown motor
Mass
297 kg wet, ~275 kg dry
Launch date (UTC)
2022-05-18 (4 years ago)
Launch vehicle
FALCON 9
Launch site
Air Force Eastern Test Range (AFETR)
Object type
Payload
Rocket body
Debris
Shape & HBR
Box + 1 Pan, 10.1 m
Radar Cross Section
13.562 m², Large (>1 m²)

Expand to show TLE details & history
Last TLE update: 2 days ago

TLE from 2 days ago
0 STARLINK-4064
1 52665U 22053K   26170.93645636  .00000680  00000-0  60803-4 0  9999
2 52665  53.1613  55.0074 0001327  87.8586 272.2557 15.08838437226480
Epoch: 2026-06-19T22:28Z
TLE epoch observation values (Epoch: 2026-06-19T22:28:29.829Z)
Latitude
-0.00005°
Longitude
169.72479°
Altitude
540.604 km
Speed
7.593 km/s
True Right ascension
03h 40m 01s
True Declination
0° 00' 00"
Sunlit
Object was in daylight at epoch
Visualization orbit readout
Latitude
Unknown
Longitude
Unknown
Altitude
Unknown
Speed
Unknown
Apparent Right ascension
Unknown
Apparent Declination
Unknown
Sunlit
N/A
Visualization observer readout
Local Sidereal Time
21:26:18
Azimuth
Unknown
Elevation
Unknown
Doppler factor
Unknown
Orbital elements
Apogee altitude
540.92 km
Perigee altitude
539.084 km
Semi-major axis
6,918.139 km
Eccentricity
0.00013
Inclination
53.1613°
RAAN
55.0074°
Arg. of periapsis
87.8586°
True anomaly
272.24051°
Mean anomaly
272.2557°
Eccentric anomaly
272.2481°
Mean motion
3.77189 °/min
Orbital period
95.44 mins
BSTAR
0.000060803
Loading maneuver chart data...
Computing Atmospheric mass density...
Loading historical data...
Loading historical data...
Loading historical data...
Loading historical data...
Loading historical data...
Loading historical data...
Loading historical data...

Documentation

Showing up to 5 results
|